AMX1005 MMMX-MMPS

Flight info

Callsign AMX1005
Flight time 0h 47m
Altitude 30000
Route MMMX/05R TEVO2A TEVOS UT115 MEMDI UJ71 PXM DCT MMPS/PXM D27
Aircraft B738/M-V/N

Departure

Time 2026-05-07 21:26
Airport Mexico City Benito Juárez International Airport (MMMX)

Arrival

Time 2026-05-07 22:13
Airport Puerto Escondido International Airport (MMPS)
Time Latitude Longitude Altitude Speed Heading
2026-05-07 21:14 19.42473 -99.08347 7347 ft 0 kts 23°
2026-05-07 21:19 19.42472 -99.08347 7347 ft 0 kts 24°
2026-05-07 21:19 19.42464 -99.08349 7347 ft 2 kts 355°
2026-05-07 21:19 19.42450 -99.08353 7347 ft 2 kts 29°
2026-05-07 21:20 19.42442 -99.08357 7347 ft 2 kts 19°
2026-05-07 21:20 19.42428 -99.08358 7347 ft 2 kts 345°
2026-05-07 21:20 19.42417 -99.08353 7347 ft 2 kts 322°
2026-05-07 21:20 19.42409 -99.08343 7347 ft 0 kts 297°
2026-05-07 21:21 19.42406 -99.08337 7347 ft 1 kts 292°
2026-05-07 21:21 19.42406 -99.08336 7347 ft 0 kts 293°
2026-05-07 21:23 19.42413 -99.08353 7347 ft 11 kts 294°
2026-05-07 21:23 19.42469 -99.08484 7348 ft 21 kts 292°
2026-05-07 21:24 19.42522 -99.08630 7345 ft 21 kts 292°
2026-05-07 21:24 19.42578 -99.08772 7343 ft 20 kts 293°
2026-05-07 21:24 19.42632 -99.08909 7341 ft 19 kts 292°
2026-05-07 21:24 19.42688 -99.09038 7339 ft 18 kts 305°
2026-05-07 21:25 19.42778 -99.09018 7341 ft 16 kts 53°
2026-05-07 21:25 19.42899 -99.08806 7346 ft 56 kts 58°
2026-05-07 21:25 19.43203 -99.08276 7359 ft 111 kts 60°
2026-05-07 21:25 19.43686 -99.07420 7344 ft 160 kts 59°
2026-05-07 21:26 19.44297 -99.06310 7490 ft 183 kts 60°
2026-05-07 21:26 19.44949 -99.05121 7947 ft 189 kts 58°
2026-05-07 21:26 19.45643 -99.03905 8401 ft 198 kts 58°
2026-05-07 21:26 19.46379 -99.02640 8817 ft 209 kts 58°
2026-05-07 21:27 19.47154 -99.01293 9236 ft 218 kts 59°
2026-05-07 21:27 19.47956 -98.99879 9552 ft 232 kts 59°
2026-05-07 21:27 19.48804 -98.98370 9937 ft 243 kts 59°
2026-05-07 21:27 19.49629 -98.96748 10298 ft 256 kts 68°
2026-05-07 21:28 19.49998 -98.94854 10614 ft 271 kts 92°
2026-05-07 21:28 19.49487 -98.92909 11064 ft 281 kts 120°
2026-05-07 21:28 19.48266 -98.91300 11766 ft 282 kts 137°
2026-05-07 21:28 19.46676 -98.90077 12482 ft 284 kts 148°
2026-05-07 21:29 19.44978 -98.89050 13167 ft 286 kts 150°
2026-05-07 21:29 19.43230 -98.88031 13859 ft 288 kts 150°
2026-05-07 21:29 19.41475 -98.86983 14597 ft 288 kts 149°
2026-05-07 21:29 19.39741 -98.85924 15284 ft 290 kts 149°
2026-05-07 21:30 19.37976 -98.84828 15932 ft 293 kts 149°
2026-05-07 21:30 19.36223 -98.83734 16620 ft 294 kts 149°
2026-05-07 21:30 19.34436 -98.82693 17252 ft 297 kts 155°
2026-05-07 21:30 19.32449 -98.81992 17816 ft 303 kts 171°
2026-05-07 21:31 19.30313 -98.81892 18221 ft 314 kts 181°
2026-05-07 21:31 19.28065 -98.82037 18563 ft 327 kts 184°
2026-05-07 21:31 19.25770 -98.82228 18896 ft 340 kts 183°
2026-05-07 21:31 19.23352 -98.82417 19204 ft 353 kts 183°
2026-05-07 21:32 19.20832 -98.82591 19535 ft 365 kts 182°
2026-05-07 21:32 19.18254 -98.82751 19796 ft 379 kts 182°
2026-05-07 21:32 19.15568 -98.82911 20089 ft 392 kts 182°
2026-05-07 21:32 19.12805 -98.83073 20369 ft 404 kts 182°
2026-05-07 21:33 19.09946 -98.83238 20727 ft 414 kts 182°
2026-05-07 21:33 19.07067 -98.83406 21352 ft 416 kts 182°
2026-05-07 21:33 19.04155 -98.83577 22051 ft 416 kts 182°
2026-05-07 21:33 19.01239 -98.83748 22664 ft 418 kts 182°
2026-05-07 21:34 18.98335 -98.83918 23125 ft 424 kts 182°
2026-05-07 21:34 18.95357 -98.84094 23593 ft 429 kts 182°
2026-05-07 21:34 18.92328 -98.84343 24033 ft 435 kts 185°
2026-05-07 21:34 18.89307 -98.84740 24571 ft 438 kts 187°
2026-05-07 21:35 18.86259 -98.85224 24989 ft 443 kts 188°
2026-05-07 21:35 18.83227 -98.85738 25444 ft 447 kts 188°
2026-05-07 21:35 18.80100 -98.86276 25882 ft 452 kts 189°
2026-05-07 21:35 18.76988 -98.86807 26277 ft 457 kts 189°
2026-05-07 21:36 18.73814 -98.87342 26748 ft 460 kts 188°
2026-05-07 21:36 18.70603 -98.87875 27120 ft 465 kts 188°
2026-05-07 21:36 18.68146 -98.88278 27467 ft 467 kts 188°
2026-05-07 21:36 18.64933 -98.88802 27904 ft 470 kts 188°
2026-05-07 21:37 18.61676 -98.89328 28292 ft 474 kts 189°
2026-05-07 21:37 18.58363 -98.89860 28726 ft 476 kts 189°
2026-05-07 21:37 18.55117 -98.90379 29134 ft 478 kts 189°
2026-05-07 21:37 18.51792 -98.90848 29138 ft 477 kts 186°
2026-05-07 21:38 18.45247 -98.90771 29127 ft 469 kts 171°
2026-05-07 21:38 18.38926 -98.88856 29576 ft 474 kts 158°
2026-05-07 21:39 18.37299 -98.88139 29873 ft 473 kts 156°
2026-05-07 21:39 18.34549 -98.86732 30089 ft 475 kts 152°
2026-05-07 21:39 18.28952 -98.83148 30073 ft 468 kts 147°
2026-05-07 21:40 18.23553 -98.79267 30066 ft 469 kts 146°
2026-05-07 21:40 18.18155 -98.75361 30056 ft 470 kts 146°
2026-05-07 21:41 18.12722 -98.71497 30043 ft 470 kts 147°
2026-05-07 21:41 18.07276 -98.67675 30053 ft 470 kts 147°
2026-05-07 21:42 18.01828 -98.63880 30067 ft 470 kts 147°
2026-05-07 21:42 17.96395 -98.60107 30084 ft 470 kts 147°
2026-05-07 21:43 17.90906 -98.56297 30111 ft 469 kts 147°
2026-05-07 21:43 17.85436 -98.52504 30126 ft 470 kts 147°
2026-05-07 21:44 17.79976 -98.48720 30145 ft 469 kts 147°
2026-05-07 21:44 17.74536 -98.44954 30163 ft 470 kts 147°
2026-05-07 21:45 17.69084 -98.41181 30171 ft 469 kts 147°
2026-05-07 21:45 17.63639 -98.37417 30183 ft 469 kts 147°
2026-05-07 21:46 17.58162 -98.33633 30191 ft 470 kts 147°
2026-05-07 21:46 17.52687 -98.29851 30193 ft 469 kts 147°
2026-05-07 21:47 17.47230 -98.26086 30192 ft 468 kts 147°
2026-05-07 21:47 17.41749 -98.22307 30195 ft 470 kts 147°
2026-05-07 21:48 17.36234 -98.18507 30203 ft 468 kts 147°
2026-05-07 21:48 17.30776 -98.14749 30200 ft 468 kts 147°
2026-05-07 21:49 17.25297 -98.10981 30201 ft 469 kts 147°
2026-05-07 21:49 17.19814 -98.07212 30185 ft 469 kts 147°
2026-05-07 21:50 17.14334 -98.03448 30168 ft 469 kts 147°
2026-05-07 21:50 17.08889 -97.99711 30147 ft 469 kts 147°
2026-05-07 21:51 17.03378 -97.95931 30143 ft 468 kts 147°
2026-05-07 21:51 16.97929 -97.92195 30128 ft 469 kts 147°
2026-05-07 21:52 16.92464 -97.88451 30122 ft 469 kts 147°
2026-05-07 21:52 16.87019 -97.84655 30098 ft 468 kts 145°
2026-05-07 21:53 16.81719 -97.80604 30092 ft 469 kts 143°
2026-05-07 21:53 16.76478 -97.76482 30074 ft 469 kts 143°
2026-05-07 21:54 16.71211 -97.72357 30077 ft 468 kts 143°
2026-05-07 21:54 16.65951 -97.68274 30071 ft 469 kts 143°
2026-05-07 21:55 16.60658 -97.64191 30073 ft 469 kts 143°
2026-05-07 21:55 16.55379 -97.60131 29723 ft 466 kts 143°
2026-05-07 21:56 16.52785 -97.58138 29192 ft 461 kts 143°
2026-05-07 21:56 16.50172 -97.56131 28476 ft 462 kts 143°
2026-05-07 21:56 16.47590 -97.54150 27642 ft 464 kts 143°
2026-05-07 21:56 16.44984 -97.52149 26692 ft 468 kts 143°
2026-05-07 21:57 16.42348 -97.50127 25665 ft 473 kts 143°
2026-05-07 21:57 16.39663 -97.48068 24564 ft 478 kts 143°
2026-05-07 21:57 16.37003 -97.46029 23476 ft 477 kts 143°
2026-05-07 21:57 16.34368 -97.44010 22791 ft 455 kts 143°
2026-05-07 21:58 16.31865 -97.42094 22135 ft 447 kts 143°
2026-05-07 21:58 16.29352 -97.40170 21386 ft 441 kts 143°
2026-05-07 21:58 16.26897 -97.38291 20665 ft 432 kts 142°
2026-05-07 21:58 16.24518 -97.36470 19975 ft 422 kts 142°
2026-05-07 21:59 16.22146 -97.34654 19251 ft 416 kts 142°
2026-05-07 21:59 16.19852 -97.32900 18554 ft 406 kts 142°
2026-05-07 21:59 16.17606 -97.31181 17952 ft 391 kts 142°
2026-05-07 21:59 16.15446 -97.29527 17295 ft 379 kts 142°
2026-05-07 22:00 16.13333 -97.27909 16444 ft 375 kts 142°
2026-05-07 22:00 16.11251 -97.26314 15582 ft 370 kts 142°
2026-05-07 22:00 16.09201 -97.24745 14877 ft 362 kts 141°
2026-05-07 22:00 16.07174 -97.23196 14189 ft 353 kts 141°
2026-05-07 22:01 16.05215 -97.21701 13572 ft 344 kts 141°
2026-05-07 22:01 16.03297 -97.20236 12945 ft 337 kts 141°
2026-05-07 22:01 16.01419 -97.18802 12337 ft 330 kts 141°
2026-05-07 22:01 15.99577 -97.17395 11727 ft 325 kts 141°
2026-05-07 22:02 15.97784 -97.16026 11269 ft 317 kts 142°
2026-05-07 22:02 15.96007 -97.14670 10896 ft 313 kts 141°
2026-05-07 22:02 15.94253 -97.13332 10666 ft 305 kts 142°
2026-05-07 22:02 15.92566 -97.12046 10546 ft 293 kts 142°
2026-05-07 22:03 15.90951 -97.10816 10429 ft 279 kts 142°
2026-05-07 22:03 15.89404 -97.09637 10246 ft 267 kts 142°
2026-05-07 22:03 15.87979 -97.08428 9754 ft 268 kts 134°
2026-05-07 22:03 15.86881 -97.06832 8948 ft 276 kts 113°
2026-05-07 22:04 15.86250 -97.04942 8065 ft 283 kts 104°
2026-05-07 22:04 15.85737 -97.02960 7238 ft 284 kts 104°
2026-05-07 22:04 15.85206 -97.01020 6676 ft 275 kts 105°
2026-05-07 22:04 15.84656 -96.99177 6330 ft 260 kts 107°
2026-05-07 22:05 15.84110 -96.97431 6019 ft 246 kts 107°
2026-05-07 22:05 15.83590 -96.95777 5730 ft 234 kts 107°
2026-05-07 22:05 15.83097 -96.94205 5412 ft 226 kts 107°
2026-05-07 22:05 15.82607 -96.92669 5030 ft 222 kts 108°
2026-05-07 22:06 15.82148 -96.91200 4882 ft 208 kts 107°
2026-05-07 22:06 15.81704 -96.89767 4536 ft 207 kts 108°
2026-05-07 22:06 15.81256 -96.88362 4207 ft 205 kts 109°
2026-05-07 22:06 15.80816 -96.86983 4083 ft 191 kts 109°
2026-05-07 22:07 15.80513 -96.85694 4038 ft 180 kts 89°
2026-05-07 22:07 15.80846 -96.84443 4060 ft 180 kts 58°
2026-05-07 22:07 15.81608 -96.83456 4048 ft 170 kts 40°
2026-05-07 22:07 15.82606 -96.82814 4049 ft 170 kts 16°
2026-05-07 22:08 15.83766 -96.82845 4044 ft 172 kts 327°
2026-05-07 22:08 15.84624 -96.83784 4087 ft 184 kts 299°
2026-05-07 22:08 15.85203 -96.84990 4064 ft 189 kts 292°
2026-05-07 22:08 15.85661 -96.86310 3895 ft 195 kts 285°
2026-05-07 22:09 15.85955 -96.87640 3689 ft 186 kts 279°
2026-05-07 22:09 15.86151 -96.88959 3453 ft 180 kts 276°
2026-05-07 22:09 15.86296 -96.90222 3215 ft 174 kts 275°
2026-05-07 22:09 15.86415 -96.91455 2982 ft 169 kts 274°
2026-05-07 22:10 15.86519 -96.92654 2753 ft 164 kts 274°
2026-05-07 22:10 15.86613 -96.93830 2535 ft 159 kts 274°
2026-05-07 22:10 15.86699 -96.94970 2329 ft 157 kts 273°
2026-05-07 22:10 15.86780 -96.96098 2127 ft 159 kts 273°
2026-05-07 22:11 15.86863 -96.97246 1921 ft 160 kts 273°
2026-05-07 22:11 15.86947 -96.98415 1693 ft 160 kts 273°
2026-05-07 22:11 15.87030 -96.99575 1470 ft 160 kts 272°
2026-05-07 22:11 15.87111 -97.00723 1253 ft 159 kts 272°
2026-05-07 22:12 15.87194 -97.01887 1058 ft 167 kts 272°
2026-05-07 22:12 15.87270 -97.03123 965 ft 172 kts 272°
2026-05-07 22:12 15.87302 -97.04346 1059 ft 167 kts 271°
2026-05-07 22:12 15.87368 -97.05544 960 ft 163 kts 269°
2026-05-07 22:13 15.87484 -97.06738 622 ft 168 kts 276°
2026-05-07 22:13 15.87625 -97.07920 324 ft 159 kts 269°
2026-05-07 22:13 15.87682 -97.08865 255 ft 91 kts 271°
2026-05-07 22:13 15.87711 -97.09268 231 ft 26 kts 272°
2026-05-07 22:14 15.87669 -97.09371 222 ft 19 kts 187°
2026-05-07 22:14 15.87548 -97.09345 219 ft 17 kts 110°
2026-05-07 22:14 15.87521 -97.09265 224 ft 8 kts 159°
2026-05-07 22:14 15.87490 -97.09262 223 ft 0 kts 181°
2026-05-07 22:15 15.87486 -97.09262 223 ft 0 kts 181°